{"data":{"norad_id":58466,"epoch":"2026-05-25T04:24:59.749632Z","epoch_age_seconds":52374,"freshness":"FRESH","line1":"1 58466U 23185E   26145.18402488  .00006398  00000+0  21652-3 0  9995","line2":"2 58466  97.3492 212.8636 0013836  40.0199 320.2059 15.30859265137777","mean_motion":15.30859265,"eccentricity":0.0013836,"inclination_deg":97.3492,"raan_deg":212.8636,"arg_perigee_deg":40.0199,"mean_anomaly_deg":320.2059,"bstar":0.00021652,"rev_number":13777,"period_min":94.06481921119,"perigee_km":463.76775406496,"apogee_km":482.72690478134,"semimajor_km":6851.3843294232,"source":"CELESTRAK","updated_at":"2026-05-25T13:38:00.765311Z"}}